Regional Weather Roundup
Issued by NWS

Home | Current Version | Previous Version | Text Only | Print | Product List | Glossary Off
Versions: 1 2 3 4 5 6 7 8 9 10 11 12 13 14 15 16 17 18 19 20 21 22 23 24 25 26 27 28 29 30 31 32 33 34 35 36 37 38 39 40 41 42 43 44 45 46 47 48 49 50

000
ASUS43 KTOP 302359
RWRKS

WEATHER ROUNDUP FOR KANSAS
NATIONAL WEATHER SERVICE GOODLAND KS
700 PM CDT THU JUL 30 2015

NOTE:  "FAIR" INDICATES FEW OR NO CLOUDS BELOW 12,000 FEET WITH NO
SIGNIFICANT WEATHER AND/OR OBSTRUCTIONS TO VISIBILITY.

KSZ001>006-013>018-027>032-041>047-310100-
NORTHWEST KANSAS

CITY           SKY/WX    TMP DP  RH WIND       PRES   REMARKS
GOODLAND       SUNNY     86  55  34 SE14G20   30.20F
6HR MIN TEMP:  83; 6HR MAX TEMP:  88;

HAYS           SUNNY     86  64  48 SE6       30.14F
HILL CITY      SUNNY     88  64  44 VRB3      30.15F
6HR MIN TEMP:  82; 6HR MAX TEMP:  89;

RUSSELL        MOSUNNY   86  67  52 VRB5      30.13F
6HR MIN TEMP:  80; 6HR MAX TEMP:  87;

$$

KSZ061>065-074>080-084>089-310100-
SOUTHWEST KANSAS

CITY           SKY/WX    TMP DP  RH WIND       PRES   REMARKS
DODGE CITY     CLOUDY    79  68  69 S8        30.18F
6HR MIN TEMP:  79; 6HR MAX TEMP:  85;

ELKHART          N/A     74  67  79 SE6         N/A
GARDEN CITY    CLOUDY    81  67  62 S5        30.18F
6HR MIN TEMP:  78; 6HR MAX TEMP:  84;

GREAT BEND     PTSUNNY   84  66  54 E7        30.14S
LIBERAL        PTSUNNY   81  66  61 E3        30.19F
PRATT          MOSUNNY   82  63  51 CALM      30.16F
$$

KSZ066>073-081>083-090>101-310100-
SOUTHEAST KANSAS

CITY           SKY/WX    TMP DP  RH WIND       PRES   REMARKS
CHANUTE        PTSUNNY   82  64  54 E8        30.13F
6HR MIN TEMP:  82; 6HR MAX TEMP:  85;

COFFEYVILLE    PTSUNNY   82  69  64 N7        30.11S
6HR MIN TEMP:  78; 6HR MAX TEMP:  86;

HUTCHINSON     MOSUNNY   83  67  58 SE9       30.15S
6HR MIN TEMP:  80; 6HR MAX TEMP:  85;

MEDICINE LODGE   N/A     83  70  64 VRB3      30.11F
NEWTON         MOSUNNY   81  66  61 SE8       30.18S
PARSONS        CLOUDY    80  74  81 CALM      30.14S
6HR MIN TEMP:  72; 6HR MAX TEMP:  81; 6HR PCP:  0.14;

WICHITA INTL   MOSUNNY   84  67  56 E7        30.13F
6HR MIN TEMP:  76; 6HR MAX TEMP:  86; 6HR PCP: TRACE;

WICHITA JABRA  MOSUNNY   82  70  66 E7        30.14S
6HR MIN TEMP:  72; 6HR MAX TEMP:  85; 6HR PCP: TRACE;

WINFIELD       MOSUNNY   83  69  62 E8        30.14S
6HR MIN TEMP:  72; 6HR MAX TEMP:  83;

$$

KSZ007>012-019>026-033>040-048>060-102>105-310100-
NORTHEAST KANSAS

CITY           SKY/WX    TMP DP  RH WIND       PRES   REMARKS
CONCORDIA      SUNNY     84  69  60 S9        30.13F
6HR MIN TEMP:  82; 6HR MAX TEMP:  87;

EMPORIA        MOSUNNY   82  63  52 SE6       30.14F
6HR MIN TEMP:  73; 6HR MAX TEMP:  84; 6HR PCP: TRACE;

LAWRENCE       MOSUNNY   84  66  54 E3        30.13F
6HR MIN TEMP:  83; 6HR MAX TEMP:  87;

MANHATTAN      MOSUNNY   87  61  41 S3        30.12F
6HR MIN TEMP:  83; 6HR MAX TEMP:  88;

OLATHE IND     SUNNY     84  54  35 SE5       30.15F
6HR MIN TEMP:  82; 6HR MAX TEMP:  86;

OLATHE EXE     SUNNY     82  55  39 S3        30.14F
6HR MIN TEMP:  81; 6HR MAX TEMP:  85;

SALINA         MOSUNNY   87  68  52 SE7       30.13S
6HR MIN TEMP:  82; 6HR MAX TEMP:  89;

TOPEKA BILLARD MOSUNNY   84  64  50 E5        30.13F
6HR MIN TEMP:  83; 6HR MAX TEMP:  87;

TOPEKA FORBES  MOSUNNY   86  60  41 E6        30.14F
6HR MIN TEMP:  82; 6HR MAX TEMP:  88;

$$



USA.gov is the U.S. government's official web portal to all federal, state and local government web resources and services.